Regional Weather Roundup
Issued by NWS Green Bay, WI

Home | Current Version | Previous Version | Graphics & Text | Print | Product List | Glossary Off
Versions: 1 2 3 4 5 6 7 8 9 10 11 12 13 14 15 16 17 18 19 20 21 22 23 24 25 26 27 28 29 30 31 32 33 34 35 36 37 38 39 40 41 42 43 44 45 46 47 48 49 50

000
ASUS43 KGRB 230059
RWRGRB

NORTH-CENTRAL AND NORTHEAST WISCONSIN REGIONAL WEATHER ROUNDUP
NATIONAL WEATHER SERVICE GREEN BAY WI
700 PM CST SAT NOV 22 2014

WIZ005-009-010>012-018-019-230200-
NORTH CENTRAL WISCONSIN

CITY           SKY/WX    TMP DP  RH WIND       PRES   REMARKS
IRONWOOD       CLOUDY    34  30  86 SE7       29.62F
MANITOWISH WTR NOT AVBL
ARBOR VITAE    NOT AVBL
EAGLE RIVER    NOT AVBL
LAND O LAKES   NOT AVBL
RHINELANDER    CLOUDY    33  33 100 SW5       29.69F FOG
PHILLIPS       NOT AVBL
ANTIGO         NOT AVBL
TOMAHAWK       NOT AVBL
MERRILL        NOT AVBL
$$

WIZ013-073-230200-
NORTHEAST WISCONSIN

CITY           SKY/WX    TMP DP  RH WIND       PRES   REMARKS
IRON MOUNTAIN  CLOUDY    35  30  82 SW6       29.70F
MARINETTE      CLOUDY    37  34  87 SW5       29.75F
$$

WIZ017-030-035>037-045-230200-
CENTRAL WISCONSIN

CITY           SKY/WX    TMP DP  RH WIND       PRES   REMARKS
MEDFORD        NOT AVBL
WAUSAU         FOG       34  34 100 S7        29.72S VSB 1/4
MOSINEE        NOT AVBL
MARSHFIELD     FOG       36  35  96 S6        29.71F VSB 1/2
WISC RAPIDS    CLOUDY    37  36  96 S5        29.75F
STEVENS POINT  NOT AVBL
WAUPACA        NOT AVBL
SHAWANO        NOT AVBL
CLINTONVILLE   NOT AVBL
$$

WIZ038-039-048-051-230200-
FOX VALLEY

CITY           SKY/WX    TMP DP  RH WIND       PRES   REMARKS
NWS GREEN BAY  CLOUDY    38  37  97 S8        29.78S FOG
APPLETON         N/A     37  37 100 VRB5      29.78S FOG
OSHKOSH        CLOUDY    42  40  92 SW7       29.78F FOG
FOND DU LAC    CLOUDY    41  39  93 S7        29.79S FOG
$$

WIZ022-050-052-230200-
EAST CENTRAL WISCONSIN

CITY           SKY/WX    TMP DP  RH WIND       PRES   REMARKS
STURGEON BAY   CLOUDY    37  36  93 S8        29.77F
MANITOWOC      NOT AVBL
SHEBOYGAN      CLOUDY    40  39  97 S6        29.81R FOG
$$

LMZ563-521-522-541>543-230200-
LAKESHORE

STATION/POSITION TIME  TEMP    WIND        PRES    VSBY  WAVE
                       AIR SEA DIR/SP/G                  HT/PER
                 (UTC) (F)     (DEG/KT/KT) (MB)    (MI)  (FT/S)
SHEBOYGAN LKSHOR 0000   43 36  200/  6/  7 1010.1R
KEWAUNEE LKSHORE 0000   40     210/  3/  6 1008.0R
NORTHPORT PIER   0000   38     200/  3/  6 1008.1R
N MID LAKE BUOY  0000   40 42  250/ 17/ 19 1008.3R         5/ 8
SISTER BAY LKSHO 0000          220/  9/ 12   N/A
CHAMBERS ISLAND  0000   38     190/  6/ 10 1008.1R
MENOMINEE LKSHOR 0000   36     180/  4/  6 1008.6R
$$



USA.gov is the U.S. government's official web portal to all federal, state and local government web resources and services.